Location: Diati
(11.8376°N, 2.5966°E)
Time: 17:48:45
(UTC+00:00)

TIMED - Pass Details

Date: 21 September 2020
Orbit: 603 x 604 km, 74.1° (Epoch: 19 October)

Event Time Altitude Azimuth Distance (km) Brightness Sun altitude
Rises 18:07:55 0° 348° (NNW) 2,844 8.1 -6.2°
Reaches altitude 10° 18:10:09 10° 349° (N) 1,941 7.3 -6.7°
Maximum altitude 18:14:29 82° 77° (ENE) 611 4.5 -7.8°
Drops below altitude 10° 18:18:50 10° 165° (SSE) 1,941 6.9 -8.8°
Sets 18:21:03 0° 166° (SSE) 2,844 7.8 -9.4°
